SCP
0 0 0 0 0 0 0 0 0 0 0 0 0 -0 0 0 0 0 0 0 0 0 0 0 0 0 0 0 0 0 0 0
0 0 0 0 0 0 0 0 0 0 0 0 0 0 -0 -0 0 0 0 0 0 0 0 0 0 0 0 0 0 0 0 0
0 0 0 0 0 0 0 0 0 0 0 0 0 -0 -0 -0 0 0 0 0 0 0 0 0 0 0 0 0 0 0 0 0
0 0 0 0 0 0 0 0 0 0 0 0 0 -0 -0 -0 0 0 0 -0 0 0 0 0 0 0 0 0 0 0 0 0
0 0 0 0 0 0 0 0 0 0 0 0 0 0 0 0 0 0 0 0 0 0 0 0 0 0 0 0 0 0 0 0
0 0 0 0 0 0 0 0 0 -0 0 0 0 -0 0 0 0 0 0 0 0 0 0 0 0 0 0 0 0 0 0 0
0 0 0 0 0 0 0 0 0 0 0 0 0 0 0 0 0 0 0 0 0 0 0 0 0 0 0 0 0 0 0 0
0 0 0 0 0 -0 -0 0 0 0 0 0 0 0 0 0 0 0 0 0 0 0 0 0 0 0 0 0 0 0 0 0
0 0 0 -0 -0 -0 0 0 0 0 0 0 0 0 0 0 0 0 0 0 0 0 0 0 0 0 0 0 0 0 0 0
0 0 0 -0 -0 -0 -0 -0 0 0 0 0 0 0 0 0 0 0 0 0 0 0 0 0 0 0 0 0 0 0 0 0
-0 0 -0 -0 -0 -0 -0 -0 -0 0 0 0 0 0 0 0 0 -0 -0 -0 -0 0 0 0 0 0 0 0 -0 0 0 -0
0 -0 -0 -0 -0 -0 -0 -0 0 -0 -0 0 0 0 0 -0 -0 -0 -0 -0 0 -0 -0 0 0 0 0 0 0 0 0 0
-0 -0 -0 -0 -0 -0 -0 0 -0 -0 0 0 0 -0 -0 0 0 0 0 0 0 0 0 -0 -0 0 0 0 0 0 0 -0
0 -0 -0 -0 -0 -0 -0 -0 0 0 0 0 0 0 0 0 0 0 0 0 0 0 0 0 0 -0 0 0 0 0 0 0
0 0 0 0 0 -0 -0 -0 0 -0 0 0 0 0 0 0 0 0 0 0 -0 -0 -0 -0 -0 -0 -0 0 0 0 0 0
0 0 -0 -0 -0 -0 -0 -0 0 0 -0 0 0 0 0 0 -0 -0 -0 -0 -0 -0 -0 -0 -0 -0 0 0 0 0 0 0
0 0 0 0 0 0 0 -0 0 0 0 -0 -0 -0 -0 -0 -0 -0 -0 0 0 0 -0 -0 0 0 0 0 0 0 0 0
0 0 0 0 0 0 0 0 0 -0 -0 -0 -0 -0 -0 -0 -0 0 -0 -0 0 0 0 0 0 0 0 0 0 0 0 0
0 0 0 0 0 0 0 0 0 0 0 -0 -0 -0 -0 -0 -0 -0 0 0 0 -0 0 0 0 0 0 0 0 0 -0 -0
0 0 0 0 0 0 0 0 0 0 0 -0 -0 -0 -0 -0 -0 -0 -0 -0 -0 -0 -0 0 0 0 0 0 -0 -0 -0 -0
Wind_Speed_500mb
52 50 46 46 60 59 44 46 47 51 61 64 61 47 44 46 47 41 36 33 12 8 4 12 13 7 8 10 15 10 16 16
61 60 63 69 76 76 70 72 73 65 66 61 55 48 45 44 47 49 46 42 33 38 36 39 37 37 33 34 31 27 26 24
73 73 76 78 83 88 83 77 75 73 71 78 59 64 69 72 68 59 60 57 57 54 56 56 57 53 50 46 41 39 36 33
84 84 88 87 92 91 90 85 84 82 83 83 76 71 73 74 71 70 70 70 67 67 67 63 60 54 51 45 42 42 40 37
82 88 86 91 97 100 94 95 91 89 92 91 87 86 83 82 81 77 74 72 68 68 67 65 59 54 49 45 45 45 46 46
80 87 86 90 99 101 102 97 95 97 98 95 87 82 80 79 75 72 70 70 66 65 66 65 65 61 54 51 51 49 48 47
79 86 88 93 98 101 100 97 95 99 97 86 81 80 79 74 72 70 71 69 65 64 64 67 68 58 54 50 49 47 47 47
79 82 83 88 94 97 95 90 91 91 86 81 78 79 77 72 70 72 71 65 66 67 62 65 61 53 51 48 46 47 50 52
78 82 84 89 89 86 84 86 88 87 82 77 74 75 72 71 71 70 65 65 63 61 59 56 54 49 47 45 48 51 53 56
74 79 82 86 85 85 85 84 84 82 79 74 70 72 69 70 69 66 60 61 59 57 55 52 52 48 46 48 52 58 61 61
74 74 75 77 75 80 82 81 84 78 76 71 68 69 67 64 61 58 58 61 59 60 58 54 53 52 55 58 63 67 72 69
68 74 74 69 71 81 80 83 76 71 69 66 63 62 61 59 60 59 60 58 58 56 56 55 55 58 60 61 66 66 69 68
64 68 67 67 66 75 79 70 64 63 62 61 60 58 56 56 57 56 54 55 54 54 56 59 58 54 54 57 57 58 79 74
62 63 63 63 63 69 67 57 55 55 57 56 52 52 52 51 51 52 55 56 54 52 50 50 52 59 66 68 66 71 74 71
53 58 61 57 58 61 55 49 46 51 53 52 51 51 51 51 51 49 49 51 53 54 57 59 63 69 66 68 68 71 74 75
48 53 55 52 53 51 45 40 43 49 51 50 49 48 47 47 48 49 49 49 51 54 57 59 60 56 51 56 70 75 74 80
41 43 46 44 46 46 41 35 35 43 47 48 46 45 43 41 40 42 44 45 50 57 62 59 50 60 66 69 74 76 81 82
37 37 37 36 37 39 35 30 34 42 43 40 40 41 41 42 42 43 44 48 55 63 65 64 66 69 70 71 72 73 73 75
31 30 30 28 27 31 31 27 29 31 34 37 40 43 46 48 50 50 52 54 59 63 65 64 67 69 69 72 73 77 76 72
30 27 26 24 21 20 21 19 18 23 29 35 39 42 45 49 50 52 54 57 63 66 65 64 67 66 68 72 76 74 72 69
Wind_Direction_500mb
86 90 102 117 128 136 126 113 109 105 94 82 73 59 80 103 105 115 106 108 119 95 110 120 102 72 104 102 82 83 85 76
91 98 106 112 112 114 110 110 105 101 98 90 77 85 87 79 83 84 84 81 89 86 87 77 72 68 64 66 68 68 68 61
82 93 101 106 106 107 108 105 101 100 99 96 94 93 91 92 89 86 85 85 83 85 82 80 79 77 75 75 76 75 72 68
76 79 84 95 101 105 105 105 103 100 95 92 91 88 89 90 90 90 89 89 89 87 85 82 79 78 77 77 76 73 68 60
66 76 81 89 94 98 98 97 98 97 94 93 93 93 92 91 91 91 92 91 88 87 87 84 81 77 75 71 67 63 59 54
64 82 80 86 95 98 100 99 99 96 93 91 92 93 92 90 90 90 88 88 88 89 87 84 78 71 66 63 60 58 55 50
71 84 85 92 96 98 98 98 97 94 93 95 94 92 89 89 89 89 88 87 84 79 77 75 71 66 63 59 56 50 45 39
76 85 90 92 96 98 99 99 96 94 94 93 92 89 88 87 85 82 79 78 79 80 78 75 71 63 56 50 45 38 31 25
83 88 92 95 96 97 96 94 93 92 91 90 89 89 89 85 82 80 79 76 75 74 73 72 68 58 50 43 37 30 23 16
87 92 96 97 98 98 95 92 90 89 89 89 88 86 83 80 78 76 74 72 68 66 65 63 61 51 41 31 26 20 15 8
93 93 93 92 95 94 92 92 91 92 91 89 87 83 80 78 76 75 73 72 68 63 58 51 45 36 26 19 14 10 6 4
91 89 91 93 94 91 89 88 90 90 88 86 83 80 79 80 77 72 68 66 62 56 49 41 33 27 20 15 6 4 359 357
92 92 93 92 90 89 87 88 87 84 81 80 78 76 73 70 69 67 63 58 54 48 40 32 24 15 10 7 7 4 358 357
97 97 95 92 89 88 88 89 88 83 78 75 73 72 72 69 65 60 53 47 41 37 31 23 16 14 10 5 2 358 353 355
104 101 98 94 90 88 90 87 83 79 76 73 69 65 60 56 53 50 48 40 34 30 24 17 12 13 4 360 354 354 352 353
107 103 100 98 96 92 87 82 78 74 71 68 64 61 56 51 48 44 40 32 26 23 18 14 16 7 1 359 355 355 351 347
114 111 109 109 105 98 87 76 73 76 73 69 65 61 56 51 46 43 37 29 23 19 16 15 10 4 1 358 356 353 348 346
122 117 115 113 109 104 98 86 75 71 70 68 64 58 51 46 41 39 35 26 20 14 12 9 5 4 0 356 353 350 348 353
133 129 129 129 122 113 101 84 70 67 66 60 53 45 39 33 28 23 19 16 14 10 8 6 4 2 357 353 352 353 359 1
150 149 143 143 137 123 112 99 79 67 58 52 43 36 30 25 21 17 14 12 9 6 5 5 5 0 356 355 355 359 3 6
Wind_Speed_850mb
52 50 46 46 60 59 44 46 47 51 61 64 61 47 44 46 47 41 36 33 12 8 4 12 13 7 8 10 15 10 16 16
61 60 63 69 76 76 70 72 73 65 66 61 55 48 45 44 47 49 46 42 33 38 36 39 37 37 33 34 31 27 26 24
73 73 76 78 83 88 83 77 75 73 71 78 59 64 69 72 68 59 60 57 57 54 56 56 57 53 50 46 41 39 36 33
84 84 88 87 92 91 90 85 84 82 83 83 76 71 73 74 71 70 70 70 67 67 67 63 60 54 51 45 42 42 40 37
82 88 86 91 97 100 94 95 91 89 92 91 87 86 83 82 81 77 74 72 68 68 67 65 59 54 49 45 45 45 46 46
80 87 86 90 99 101 102 97 95 97 98 95 87 82 80 79 75 72 70 70 66 65 66 65 65 61 54 51 51 49 48 47
79 86 88 93 98 101 100 97 95 99 97 86 81 80 79 74 72 70 71 69 65 64 64 67 68 58 54 50 49 47 47 47
79 82 83 88 94 97 95 90 91 91 86 81 78 79 77 72 70 72 71 65 66 67 62 65 61 53 51 48 46 47 50 52
78 82 84 89 89 86 84 86 88 87 82 77 74 75 72 71 71 70 65 65 63 61 59 56 54 49 47 45 48 51 53 56
74 79 82 86 85 85 85 84 84 82 79 74 70 72 69 70 69 66 60 61 59 57 55 52 52 48 46 48 52 58 61 61
74 74 75 77 75 80 82 81 84 78 76 71 68 69 67 64 61 58 58 61 59 60 58 54 53 52 55 58 63 67 72 69
68 74 74 69 71 81 80 83 76 71 69 66 63 62 61 59 60 59 60 58 58 56 56 55 55 58 60 61 66 66 69 68
64 68 67 67 66 75 79 70 64 63 62 61 60 58 56 56 57 56 54 55 54 54 56 59 58 54 54 57 57 58 79 74
62 63 63 63 63 69 67 57 55 55 57 56 52 52 52 51 51 52 55 56 54 52 50 50 52 59 66 68 66 71 74 71
53 58 61 57 58 61 55 49 46 51 53 52 51 51 51 51 51 49 49 51 53 54 57 59 63 69 66 68 68 71 74 75
48 53 55 52 53 51 45 40 43 49 51 50 49 48 47 47 48 49 49 49 51 54 57 59 60 56 51 56 70 75 74 80
41 43 46 44 46 46 41 35 35 43 47 48 46 45 43 41 40 42 44 45 50 57 62 59 50 60 66 69 74 76 81 82
37 37 37 36 37 39 35 30 34 42 43 40 40 41 41 42 42 43 44 48 55 63 65 64 66 69 70 71 72 73 73 75
31 30 30 28 27 31 31 27 29 31 34 37 40 43 46 48 50 50 52 54 59 63 65 64 67 69 69 72 73 77 76 72
30 27 26 24 21 20 21 19 18 23 29 35 39 42 45 49 50 52 54 57 63 66 65 64 67 66 68 72 76 74 72 69
Wind_Direction_850mb
86 90 102 117 128 136 126 113 109 105 94 82 73 59 80 103 105 115 106 108 119 95 110 120 102 72 104 102 82 83 85 76
91 98 106 112 112 114 110 110 105 101 98 90 77 85 87 79 83 84 84 81 89 86 87 77 72 68 64 66 68 68 68 61
82 93 101 106 106 107 108 105 101 100 99 96 94 93 91 92 89 86 85 85 83 85 82 80 79 77 75 75 76 75 72 68
76 79 84 95 101 105 105 105 103 100 95 92 91 88 89 90 90 90 89 89 89 87 85 82 79 78 77 77 76 73 68 60
66 76 81 89 94 98 98 97 98 97 94 93 93 93 92 91 91 91 92 91 88 87 87 84 81 77 75 71 67 63 59 54
64 82 80 86 95 98 100 99 99 96 93 91 92 93 92 90 90 90 88 88 88 89 87 84 78 71 66 63 60 58 55 50
71 84 85 92 96 98 98 98 97 94 93 95 94 92 89 89 89 89 88 87 84 79 77 75 71 66 63 59 56 50 45 39
76 85 90 92 96 98 99 99 96 94 94 93 92 89 88 87 85 82 79 78 79 80 78 75 71 63 56 50 45 38 31 25
83 88 92 95 96 97 96 94 93 92 91 90 89 89 89 85 82 80 79 76 75 74 73 72 68 58 50 43 37 30 23 16
87 92 96 97 98 98 95 92 90 89 89 89 88 86 83 80 78 76 74 72 68 66 65 63 61 51 41 31 26 20 15 8
93 93 93 92 95 94 92 92 91 92 91 89 87 83 80 78 76 75 73 72 68 63 58 51 45 36 26 19 14 10 6 4
91 89 91 93 94 91 89 88 90 90 88 86 83 80 79 80 77 72 68 66 62 56 49 41 33 27 20 15 6 4 359 357
92 92 93 92 90 89 87 88 87 84 81 80 78 76 73 70 69 67 63 58 54 48 40 32 24 15 10 7 7 4 358 357
97 97 95 92 89 88 88 89 88 83 78 75 73 72 72 69 65 60 53 47 41 37 31 23 16 14 10 5 2 358 353 355
104 101 98 94 90 88 90 87 83 79 76 73 69 65 60 56 53 50 48 40 34 30 24 17 12 13 4 360 354 354 352 353
107 103 100 98 96 92 87 82 78 74 71 68 64 61 56 51 48 44 40 32 26 23 18 14 16 7 1 359 355 355 351 347
114 111 109 109 105 98 87 76 73 76 73 69 65 61 56 51 46 43 37 29 23 19 16 15 10 4 1 358 356 353 348 346
122 117 115 113 109 104 98 86 75 71 70 68 64 58 51 46 41 39 35 26 20 14 12 9 5 4 0 356 353 350 348 353
133 129 129 129 122 113 101 84 70 67 66 60 53 45 39 33 28 23 19 16 14 10 8 6 4 2 357 353 352 353 359 1
150 149 143 143 137 123 112 99 79 67 58 52 43 36 30 25 21 17 14 12 9 6 5 5 5 0 356 355 355 359 3 6